Flag for U.S.A. Weather past 2 weeks in Kansas City, Missouri, U.S.A.

Now
32 °F

Sunny.


Feels Like: 32 °F
Forecast: 36 / 56 °F
Wind: No wind

Location: Kansas City Downtown Airport

Current Time: Jan 27, 2015 at 8:43:21 AM

Latest Report: Jan 27, 2015 at 7:54 AM


Visibility: 10 mi

Pressure: 30.17 "Hg

Humidity: 88%

Dew point: 29 °F

Location of Kansas CityLocation

Historic Weather in Kansas City — Graph

°F

Kansas City temperature yesterday

Maximum temperature yesterday: 62 °F (at 3:54 PM)
Minimum temperature yesterday: 28 °F (at 1:54 AM)
Average temperature yesterday: 43 °F

Past Weeks' High & Low Weather Summary

 TemperatureHumidityPressure
High66 °F (Jan 19, 1:54 PM)93% (Jan 26, 1:54 AM)30.75 "Hg (Jan 26, 1:54 AM)
Low6 °F (Jan 13, 6:54 AM)19% (Jan 19, 1:54 PM)29.63 "Hg (Jan 25, 3:54 AM)
Average38 °F59%30.14 "Hg
* Reported Jan 12 6:54 AM — Jan 27 6:54 AM, Kansas City, Weather by CustomWeather, © 2014

Note: Actual official high and low records may vary slightly from our data, if they occured in-between our weather recording intervals... More about our weather records

Advertising

Kansas City weather history for previous 24 hours

 ConditionsComfort  
Time TempWeatherWind HumidityBarometerVisibility
6:54 AM
Jan 27
32 °FClear.No wind88%30.14 "Hg10 mi
5:54 AM32 °FClear.No wind88%30.11 "Hg10 mi
4:54 AM34 °FClear.3 mph85%30.10 "Hg10 mi
3:54 AM36 °FClear.No wind79%30.09 "Hg10 mi
2:54 AM36 °FClear.6 mph82%30.08 "Hg10 mi
1:54 AM37 °FClear.No wind79%30.06 "Hg10 mi
12:54 AM37 °FClear.No wind76%30.04 "Hg10 mi
11:54 PM
Jan 26
34 °FClear.6 mph82%30.04 "Hg10 mi
10:54 PM42 °FClear.5 mph71%30.02 "Hg10 mi
9:54 PM43 °FClear.No wind65%30.01 "Hg10 mi
8:54 PM50 °FClear.3 mph52%30.01 "Hg10 mi
7:54 PM49 °FClear.No wind52%30.00 "Hg10 mi
6:54 PM52 °FClear.No wind47%29.98 "Hg10 mi
5:54 PM57 °FClear.6 mph39%29.96 "Hg10 mi
4:54 PM61 °FSunny.9 mph35%29.93 "Hg10 mi
3:54 PM62 °FSunny.16 mph34%29.91 "Hg10 mi
2:54 PM61 °FPassing clouds.12 mph39%29.90 "Hg10 mi
1:54 PM58 °FSunny.14 mph43%29.90 "Hg10 mi
12:54 PM54 °FSunny.9 mph47%29.91 "Hg10 mi
11:54 AM49 °FSunny.8 mph52%29.94 "Hg10 mi
10:54 AM46 °FSunny.12 mph56%29.96 "Hg10 mi
9:54 AM42 °FSunny.10 mph65%29.97 "Hg10 mi
8:54 AM36 °FSunny.8 mph79%29.99 "Hg10 mi
Weather by CustomWeather, © 2014

See weather overviewHow to use our weather pages